STARLINK-5669, 55459

Orbit data source: Space-Track

STARLINK-5669, 55459 is a payload satellite owned by SpaceX/Seattle (US) in LEO that was launched on Thu, 02 Feb 2023 UTC via an FALCON 9 launch vehicle from the Air Force Eastern Test Range (AFETR). Payload-class satellites include a variety of spacecraft equipped with specific instruments for various scientific and technological missions. These include communications satellites like Starlink; space stations such as the ISS; scientific satellites like the Hubble; Earth observation satellites from companies like Planet Labs, Umbra, and HawkEye 360; GPS; miniature CubeSats for education and research; and military/defense satellites.

Loading next visibility...
Identifier
55459, 2023-015L
Orbit
LEO
Country
Flag of USUS
Related business
Manufacturer
SpaceX/Seattle
Mission
Operational spacecraft
Bus & Motor
STARLINK, Unknown motor
Mass
305 kg wet, ~290 kg dry
Launch date (UTC)
2023-02-02 (3 years ago)
Launch vehicle
FALCON 9
Launch site
Air Force Eastern Test Range (AFETR)
Object type
Payload
Rocket body
Debris
Shape & HBR
Unknown shape, 10.1 m
Radar Cross Section
Large (>1 m²)

Expand to show TLE details & history
Last TLE update: 16 hours ago

TLE from 16 hours ago
0 STARLINK-5669
1 55459U 23015L   26035.32575972  .00000230  00000-0  32121-4 0  9993
2 55459  43.0026 147.4143 0001310 273.5108  86.5584 15.02535064165739
Epoch: 2026-02-04T07:49Z
TLE epoch observation values (Epoch: 2026-02-04T07:49:05.639Z)
Latitude
-0.00007°
Longitude
-104.35322°
Altitude
558.806 km
Speed
7.584 km/s
True Right ascension
09h 49m 39s
True Declination
0° 00' 00"
Sunlit
Object was in full shadow at epoch
Visualization orbit readout
Latitude
Unknown
Longitude
Unknown
Altitude
Unknown
Speed
Unknown
Apparent Right ascension
Unknown
Apparent Declination
Unknown
Sunlit
N/A
Visualization observer readout
Local Sidereal Time
01:39:04
Azimuth
Unknown
Elevation
Unknown
Doppler factor
Unknown
Orbital elements
Apogee altitude
561.915 km
Perigee altitude
560.097 km
Semi-major axis
6,939.143 km
Eccentricity
0.00013
Inclination
43.0026°
RAAN
147.4143°
Arg. of periapsis
273.5108°
True anomaly
86.57338°
Mean anomaly
86.5584°
Eccentric anomaly
86.56589°
Mean motion
3.75478 °/min
Orbital period
95.88 mins
BSTAR
0.000032121
Loading maneuver chart data...
Computing Atmospheric mass density...
Loading historical data...
Loading historical data...
Loading historical data...
Loading historical data...
Loading historical data...
Loading historical data...
Loading historical data...

Documentation

Showing up to 5 results
|